{"data":{"norad_id":67332,"intl_designator":"2026-002AD","name":"STARLINK-36492","alt_names":[],"object_type":"PAYLOAD","status":"ACTIVE","operator":null,"country":"US","launch_date":"2026-01-04","launch_site_code":"AFETR","launch_vehicle":null,"mission":null,"orbit_class":"UNKNOWN","rcs_meters":null,"size_class":null,"mass_kg":null,"dimensions":null,"purposes":["comms"],"wikipedia_slug":null,"has_3d_model":false,"image_url":null,"decayed_at":null,"tle_current":{"epoch":"2026-05-24T23:44:26.295072Z","epoch_age_seconds":66156,"freshness":"FRESH","line1":"1 67332U 26002AD  26144.98919323  .00009788  00000+0  36467-3 0  9992","line2":"2 67332  42.9988 254.7363 0001209 278.6307  81.4407 15.27586708 22904","mean_motion":15.27586708,"eccentricity":0.0001209,"inclination_deg":42.9988,"raan_deg":254.7363,"arg_perigee_deg":278.6307,"mean_anomaly_deg":81.4407,"bstar":0.00036467,"rev_number":2290,"period_min":94.266334765725,"perigee_km":482.19949497736,"apogee_km":483.85852491857,"semimajor_km":6861.166009948,"source":"CELESTRAK","updated_at":"2026-05-25T13:38:21.520977Z"}}}